Bigfork, MN

11:16 PM CDT on April 26, 2017 (GMT -0500)
Bigfork Municipal

Weather History for KFOZ - March, 2014

Change the Weather History Date:

Tuesday, March 18, 2014

  Actual Average (KGPZ) Record (KGPZ)
Temperature  
Mean Temperature 26 °F -  
Max Temperature 32 °F 39 °F 75 °F (2012)
Min Temperature 19 °F 17 °F -32 °F (1939)
Degree Days  
Heating Degree Days 40    
Moisture  
Dew Point 20 °F    
Average Humidity 74    
Maximum Humidity 93    
Minimum Humidity 64    
Precipitation  
Precipitation 0.00 in - - ()
Sea Level Pressure  
Sea Level Pressure 29.82 in    
Wind  
Wind Speed 5 mph (ENE)    
Max Wind Speed 7 mph    
Max Gust Speed -    
Visibility 10 miles    
Events      
Averages and records for this station are not official NWS values.
T = Trace of Precipitation, MM = Missing Value Source: NWS Daily Summary

Daily Weather History Graph

Daily Weather History Graph

Search for Another Location

Airport or City:

Trip Planner

Search our weather history database for the weather conditions in past years. The results will help you decide how hot, cold, wet, or windy it might be!

Date:

Astronomy

Mar. 18, 2014 Rise Set
Actual Time 7:21 AM CDT 7:24 PM CDT
Civil Twilight 6:50 AM CDT 7:55 PM CDT
Nautical Twilight 6:14 AM CDT 8:31 PM CDT
Astronomical Twilight 5:37 AM CDT 9:08 PM CDT
Moon 9:54 PM CDT (3/18) 8:01 AM CDT (3/18)
Length of Visible Light 13h 04m
Length of Day
12h 03m
Waning Gibbous, 96% of the Moon is Illuminated
Mar 18
Waning Gibbous
Mar 23
Last Quarter
Mar 30
New
Apr 7
First Quarter
Apr 15
Full

Hourly Weather History & Observations

Time (CDT) Temp. Windchill Dew Point Humidity Pressure Visibility Wind Dir Wind Speed Gust Speed Precip Events Conditions
12:13 AM 28.4 °F 21.2 °F 21.2 °F 74% 29.68 in 10.0 mi SE 6.9 mph - N/A   Overcast
12:33 AM 28.4 °F 21.2 °F 19.4 °F 69% 29.69 in 10.0 mi ESE 6.9 mph - N/A   Overcast
12:53 AM 28.4 °F 22.2 °F 19.4 °F 69% 29.70 in 10.0 mi SE 5.8 mph - N/A   Overcast
1:13 AM 28.4 °F 21.2 °F 19.4 °F 69% 29.70 in 10.0 mi SE 6.9 mph - N/A   Overcast
1:33 AM 28.4 °F 22.2 °F 19.4 °F 69% 29.71 in 10.0 mi SSE 5.8 mph - N/A   Overcast
1:53 AM 26.6 °F 21.2 °F 19.4 °F 74% 29.72 in 10.0 mi SSE 4.6 mph - N/A   Overcast
2:13 AM 26.6 °F 20.0 °F 19.4 °F 74% 29.72 in 10.0 mi SE 5.8 mph - N/A   Overcast
2:33 AM 26.6 °F 20.0 °F 19.4 °F 74% 29.73 in 10.0 mi SSE 5.8 mph - N/A   Overcast
2:53 AM 26.6 °F 20.0 °F 19.4 °F 74% 29.72 in 10.0 mi SE 5.8 mph - N/A   Overcast
3:13 AM 26.6 °F 22.6 °F 19.4 °F 74% 29.72 in 10.0 mi ESE 3.5 mph - N/A   Overcast
3:33 AM 26.6 °F 22.6 °F 19.4 °F 74% 29.72 in 10.0 mi ESE 3.5 mph - N/A   Overcast
3:53 AM 26.6 °F 22.6 °F 19.4 °F 74% 29.73 in 10.0 mi ESE 3.5 mph - N/A   Mostly Cloudy
4:13 AM 24.8 °F - 19.4 °F 80% 29.72 in 10.0 mi Calm Calm - N/A   Scattered Clouds
4:33 AM 24.8 °F 20.5 °F 19.4 °F 80% 29.73 in 10.0 mi East 3.5 mph - N/A   Scattered Clouds
4:53 AM 24.8 °F 19.1 °F 19.4 °F 80% 29.73 in 10.0 mi ENE 4.6 mph - N/A   Clear
5:13 AM 24.8 °F - 17.6 °F 74% 29.74 in 10.0 mi Calm Calm - N/A   Scattered Clouds
5:32 AM 23.0 °F 18.4 °F 17.6 °F 80% 29.74 in 10.0 mi ENE 3.5 mph - N/A   Clear
5:53 AM 23.0 °F 18.4 °F 17.6 °F 80% 29.75 in 10.0 mi ENE 3.5 mph - N/A   Clear
6:13 AM 23.0 °F 18.4 °F 17.6 °F 80% 29.76 in 10.0 mi NE 3.5 mph - N/A   Clear
6:33 AM 21.2 °F 16.4 °F 17.6 °F 86% 29.76 in 10.0 mi NE 3.5 mph - N/A   Scattered Clouds
6:53 AM 21.2 °F 14.9 °F 17.6 °F 86% 29.78 in 10.0 mi NE 4.6 mph - N/A   Mostly Cloudy
7:13 AM 21.2 °F 16.4 °F 17.6 °F 86% 29.79 in 10.0 mi ENE 3.5 mph - N/A   Scattered Clouds
7:33 AM 21.2 °F - 17.6 °F 86% 29.79 in 10.0 mi Calm Calm - N/A   Clear
7:53 AM 19.4 °F - 17.6 °F 93% 29.80 in 10.0 mi Calm Calm - N/A   Clear
7:54 AM 19.4 °F - 17.6 °F 93% 29.80 in 10.0 mi Calm Calm - N/A   Clear
8:13 AM 19.4 °F - 15.8 °F 86% 29.81 in 10.0 mi Calm Calm - N/A   Clear
8:14 AM 19.4 °F - 15.8 °F 86% 29.81 in 10.0 mi Calm Calm - N/A   Scattered Clouds
8:33 AM 21.2 °F 16.4 °F 17.6 °F 86% 29.82 in 10.0 mi ENE 3.5 mph - N/A   Mostly Cloudy
8:53 AM 23.0 °F 17.0 °F 17.6 °F 80% 29.82 in 10.0 mi ENE 4.6 mph - N/A   Overcast
9:13 AM 23.0 °F 17.0 °F 17.6 °F 80% 29.82 in 10.0 mi ENE 4.6 mph - N/A   Overcast
9:33 AM 24.8 °F 20.5 °F 17.6 °F 74% 29.82 in 10.0 mi ENE 3.5 mph - N/A   Mostly Cloudy
9:52 AM 24.8 °F 17.9 °F 19.4 °F 80% 29.83 in 10.0 mi ENE 5.8 mph - N/A   Overcast
10:13 AM 26.6 °F 21.2 °F 19.4 °F 74% 29.83 in 10.0 mi ENE 4.6 mph - N/A   Mostly Cloudy
10:33 AM 26.6 °F 21.2 °F 19.4 °F 74% 29.83 in 10.0 mi ENE 4.6 mph - N/A   Scattered Clouds
10:53 AM 26.6 °F 19.1 °F 19.4 °F 74% 29.83 in 10.0 mi NE 6.9 mph - N/A   Scattered Clouds
11:13 AM 26.6 °F 21.2 °F 19.4 °F 74% 29.84 in 10.0 mi ENE 4.6 mph - N/A   Scattered Clouds
11:32 AM 26.6 °F 21.2 °F 19.4 °F 74% 29.84 in 10.0 mi East 4.6 mph - N/A   Scattered Clouds
11:53 AM 28.4 °F 22.2 °F 19.4 °F 69% 29.84 in 10.0 mi East 5.8 mph - N/A   Clear
12:13 PM 28.4 °F 23.3 °F 19.4 °F 69% 29.85 in 10.0 mi ENE 4.6 mph - N/A   Scattered Clouds
12:33 PM 28.4 °F 22.2 °F 19.4 °F 69% 29.85 in 10.0 mi NE 5.8 mph - N/A   Scattered Clouds
12:53 PM 28.4 °F 23.3 °F 19.4 °F 69% 29.85 in 10.0 mi ENE 4.6 mph - N/A   Scattered Clouds
1:13 PM 30.2 °F 24.3 °F 19.4 °F 64% 29.85 in 10.0 mi East 5.8 mph - N/A   Scattered Clouds
1:33 PM 28.4 °F 21.2 °F 21.2 °F 74% 29.86 in 10.0 mi NE 6.9 mph - N/A   Scattered Clouds
1:53 PM 30.2 °F 23.4 °F 21.2 °F 69% 29.86 in 10.0 mi ENE 6.9 mph - N/A   Scattered Clouds
2:13 PM 30.2 °F 24.3 °F 21.2 °F 69% 29.86 in 10.0 mi ENE 5.8 mph - N/A   Clear
2:33 PM 30.2 °F 26.7 °F 21.2 °F 69% 29.86 in 10.0 mi ENE 3.5 mph - N/A   Clear
2:53 PM 30.2 °F 25.4 °F 21.2 °F 69% 29.85 in 10.0 mi ENE 4.6 mph - N/A   Scattered Clouds
3:13 PM 30.2 °F 24.3 °F 21.2 °F 69% 29.85 in 10.0 mi NNE 5.8 mph - N/A   Scattered Clouds
3:33 PM 30.2 °F 25.4 °F 21.2 °F 69% 29.85 in 10.0 mi NE 4.6 mph - N/A   Scattered Clouds
3:53 PM 30.2 °F 25.4 °F 21.2 °F 69% 29.85 in 10.0 mi NE 4.6 mph - N/A   Scattered Clouds
4:13 PM 30.2 °F 23.4 °F 21.2 °F 69% 29.86 in 10.0 mi ENE 6.9 mph - N/A   Scattered Clouds
4:33 PM 30.2 °F 25.4 °F 21.2 °F 69% 29.86 in 10.0 mi NNE 4.6 mph - N/A   Scattered Clouds
4:53 PM 32.0 °F 27.5 °F 21.2 °F 64% 29.85 in 10.0 mi NE 4.6 mph - N/A   Scattered Clouds
5:14 PM 30.2 °F 25.4 °F 21.2 °F 69% 29.85 in 10.0 mi NE 4.6 mph - N/A   Scattered Clouds
5:33 PM 30.2 °F 25.4 °F 21.2 °F 69% 29.86 in 10.0 mi NE 4.6 mph - N/A   Scattered Clouds
5:53 PM 30.2 °F 25.4 °F 21.2 °F 69% 29.86 in 10.0 mi NE 4.6 mph - N/A   Scattered Clouds
6:13 PM 30.2 °F 25.4 °F 21.2 °F 69% 29.86 in 10.0 mi NNE 4.6 mph - N/A   Scattered Clouds
6:33 PM 30.2 °F 25.4 °F 21.2 °F 69% 29.86 in 10.0 mi NE 4.6 mph - N/A   Mostly Cloudy
6:53 PM 30.2 °F 24.3 °F 21.2 °F 69% 29.87 in 10.0 mi NNE 5.8 mph - N/A   Mostly Cloudy
7:13 PM 30.2 °F 26.7 °F 21.2 °F 69% 29.87 in 10.0 mi NNE 3.5 mph - N/A   Mostly Cloudy
7:33 PM 30.2 °F 26.7 °F 21.2 °F 69% 29.88 in 10.0 mi NE 3.5 mph - N/A   Overcast
7:53 PM 30.2 °F 26.7 °F 21.2 °F 69% 29.88 in 10.0 mi NNE 3.5 mph - N/A   Overcast
8:13 PM 30.2 °F - 21.2 °F 69% 29.89 in 10.0 mi Calm Calm - N/A   Overcast
8:33 PM 30.2 °F 26.7 °F 21.2 °F 69% 29.89 in 10.0 mi NNE 3.5 mph - N/A   Mostly Cloudy
8:53 PM 30.2 °F - 21.2 °F 69% 29.90 in 10.0 mi Calm Calm - N/A   Mostly Cloudy
9:13 PM 30.2 °F 26.7 °F 21.2 °F 69% 29.90 in 10.0 mi NNE 3.5 mph - N/A   Mostly Cloudy
9:33 PM 30.2 °F 26.7 °F 21.2 °F 69% 29.89 in 10.0 mi NNE 3.5 mph - N/A   Mostly Cloudy
9:53 PM 30.2 °F 25.4 °F 21.2 °F 69% 29.89 in 10.0 mi NNE 4.6 mph - N/A   Mostly Cloudy
10:13 PM 28.4 °F 24.6 °F 21.2 °F 74% 29.90 in 10.0 mi North 3.5 mph - N/A   Overcast
10:33 PM 28.4 °F - 21.2 °F 74% 29.89 in 10.0 mi Calm Calm - N/A   Overcast
10:53 PM 28.4 °F 24.6 °F 21.2 °F 74% 29.89 in 10.0 mi North 3.5 mph - N/A   Overcast
11:13 PM 28.4 °F 24.6 °F 21.2 °F 74% 29.88 in 10.0 mi North 3.5 mph - N/A   Overcast
11:33 PM 28.4 °F - 21.2 °F 74% 29.88 in 10.0 mi Calm Calm - N/A   Overcast
11:53 PM 28.4 °F 24.6 °F 21.2 °F 74% 29.88 in 10.0 mi North 3.5 mph - N/A   Overcast